User: anonymous   Login
Location: Unspecified
(0.0000°N, 0.0000°E)
Time: 14:33:51
(UTC+00:00)
Language:

UNAMSat - Orbit

View from above orbital plane
View from above orbital plane
View from above satellite
View from above satellite

Ground track
Ground track

The orbit data is extracted from the following two-line orbital elements,

1 24305U 96052B   17084.92045808 +.00000029 +00000-0 +14860-4 0  9996
2 24305 082.9363 054.1642 0028718 275.1419 084.6459 13.73780856030089
Epoch (UTC): 25 March 2017 22:05:27
Eccentricity: 0.0028718
inclination: 82.9363°
perigee height: 965 km
apogee height: 1007 km
right ascension of ascending node: 54.1642°
argument of perigee: 275.1419°
revolutions per day: 13.73780856
mean anomaly at epoch: 84.6459°
orbit number at epoch: 3008

The dashed part of the orbit path shows where the satellite is in the earth's shadow,  

DLR